JL1LCW-13 Weather Reports


time (UTC)temp
F
wind
direction
speed
knots
gust
knots
rain 1hr
in
rain 24hr
in
rain mn
in
humidity
%
barometer
mb
20260510015158 75 112 1.7 5.2 0.00 0.00 0.00 38 1023.0
20260510013658 75 135 1.7 5.2 0.00 0.00 0.00 45 1023.0
20260510005157 72 45 3.5 5.2 0.00 0.00 0.00 47 1023.0
20260510003658 70 67 5.2 5.2 0.00 0.00 0.00 51 1023.0
20260509235159 66 45 3.5 5.2 0.00 0.00 0.00 51 1023.0
20260509233658 66 45 1.7 5.2 0.00 0.00 0.00 55 1023.0
20260509225159 63 90 1.7 3.5 0.00 0.00 0.00 73 1023.0
20260509223658 63 360 0.0 3.5 0.00 0.00 0.00 79 1023.0
20260509215157 55 22 0.0 0.0 0.00 0.00 0.00 99 1023.0
20260509213659 54 202 0.0 0.0 0.00 0.00 0.00 99 1023.0
20260509205157 48 90 0.0 0.0 0.00 0.00 0.00 99 1022.0
20260509203659 46 67 0.0 0.0 0.00 0.00 0.00 99 1022.0
20260509195159 45 90 0.0 0.0 0.00 0.00 0.00 99 1021.0
20260509193658 45 202 0.0 0.0 0.00 0.00 0.00 99 1021.0
20260509185157 45 180 0.0 0.0 0.00 0.00 0.00 99 1020.0
20260509183657 46 45 0.0 0.0 0.00 0.00 0.00 99 1020.0
20260509175158 46 292 0.0 0.0 0.00 0.00 0.00 99 1020.0
20260509173658 46 67 0.0 0.0 0.00 0.00 0.00 99 1020.0
20260509165159 46 45 0.0 1.7 0.00 0.00 0.00 99 1019.0
20260509163658 48 90 0.0 1.7 0.00 0.00 0.00 99 1019.0
20260509155159 48 45 0.0 1.7 0.00 0.00 0.00 99 1019.0
20260509153658 48 45 0.0 0.0 0.00 0.00 0.00 99 1019.0
20260509145157 50 270 0.0 0.0 0.00 0.00 0.00 99 1019.0
20260509143659 50 45 0.0 0.0 0.00 0.00 0.00 99 1018.0
20260509135158 50 225 0.0 0.0 0.00 0.00 0.00 95 1018.0
20260509133657 50 157 0.0 0.0 0.00 0.00 0.00 91 1018.0
20260509125157 52 112 0.0 0.0 0.00 0.00 0.00 87 1017.0
20260509123657 52 90 0.0 0.0 0.00 0.00 0.00 85 1017.0
20260509115158 54 202 0.0 0.9 0.00 0.00 0.00 79 1017.0
20260509113658 55 67 0.0 0.9 0.00 0.00 0.00 77 1017.0
20260509105159 59 67 0.0 0.0 0.00 0.00 0.00 68 1016.0
20260509103658 59 112 0.0 1.7 0.00 0.00 0.00 66 1016.0
20260509095157 64 157 0.0 5.2 0.00 0.00 0.00 55 1015.0
20260509093657 66 67 0.9 5.2 0.00 0.00 0.00 49 1015.0
20260509085158 70 45 0.0 5.2 0.00 0.00 0.00 41 1014.0
20260509083658 70 45 0.0 7.8 0.00 0.00 0.00 43 1014.0
20260509075158 72 225 3.5 8.7 0.00 0.00 0.00 32 1013.0
20260509073658 72 112 1.7 8.7 0.00 0.00 0.00 32 1012.0
20260509065157 75 112 5.2 10.4 0.00 0.00 0.00 32 1012.0
20260509063658 75 45 5.2 10.4 0.00 0.00 0.00 32 1012.0
20260509055158 77 45 4.3 8.7 0.00 0.00 0.00 38 1012.0
20260509053658 77 360 1.7 8.7 0.00 0.00 0.00 37 1012.0
20260509045159 75 270 5.2 8.7 0.00 0.00 0.00 37 1012.0
20260509043659 75 292 5.2 8.7 0.00 0.00 0.00 38 1012.0
20260509035158 77 360 3.5 12.2 0.00 0.00 0.00 42 1012.0
20260509033657 77 180 5.2 12.2 0.00 0.00 0.00 41 1012.0
20260509025158 75 45 5.2 12.2 0.00 0.00 0.00 42 1011.0
20260509023658 73 270 7.0 12.2 0.00 0.00 0.00 41 1011.0